TimeEST,TemperatureF,Dew PointF,Humidity,Sea Level PressureIn,VisibilityMPH,Wind Direction,Wind SpeedMPH,Gust SpeedMPH,PrecipitationIn,Events,Conditions,WindDirDegrees,DateUTC
12:53 AM,60.1,57.0,90,30.19,10.0,NE,5.8,-,N/A,,Scattered Clouds,50,2013-11-17 05:53:00
1:53 AM,57.9,55.0,90,30.17,7.0,NNE,4.6,-,N/A,,Scattered Clouds,30,2013-11-17 06:53:00
2:04 AM,57.2,55.4,94,30.17,5.0,NE,4.6,-,N/A,,Mostly Cloudy,50,2013-11-17 07:04:00
2:17 AM,59.0,55.4,88,30.17,1.8,NE,4.6,-,N/A,,Overcast,50,2013-11-17 07:17:00
2:25 AM,59.0,55.4,88,30.16,0.8,ENE,3.5,-,N/A,,Mist,60,2013-11-17 07:25:00
2:53 AM,57.9,55.9,93,30.15,0.2,Calm,Calm,-,N/A,Fog,Fog,0,2013-11-17 07:53:00
3:13 AM,57.2,55.4,94,30.15,0.2,Calm,Calm,-,N/A,Fog,Fog,0,2013-11-17 08:13:00
3:53 AM,55.9,54.0,93,30.14,0.2,Calm,Calm,-,N/A,Fog,Fog,0,2013-11-17 08:53:00
4:46 AM,55.4,53.6,94,30.13,0.5,Calm,Calm,-,N/A,Fog,Fog,0,2013-11-17 09:46:00
4:53 AM,55.9,53.1,90,30.13,0.2,Calm,Calm,-,N/A,Fog,Fog,0,2013-11-17 09:53:00
5:00 AM,55.4,53.6,94,30.12,0.2,NE,3.5,-,N/A,Fog,Fog,40,2013-11-17 10:00:00
5:53 AM,55.9,53.1,90,30.14,0.2,Calm,Calm,-,N/A,Fog,Fog,0,2013-11-17 10:53:00
6:34 AM,57.2,53.6,88,30.15,0.5,NNE,3.5,-,N/A,Fog,Fog,20,2013-11-17 11:34:00
6:53 AM,57.0,54.0,89,30.15,0.5,North,3.5,-,N/A,Fog,Fog,10,2013-11-17 11:53:00
7:02 AM,57.2,53.6,88,30.15,0.2,NNE,3.5,-,N/A,Fog,Fog,20,2013-11-17 12:02:00
7:53 AM,57.9,55.0,90,30.15,0.2,NNE,3.5,-,N/A,Fog,Fog,30,2013-11-17 12:53:00
8:49 AM,60.8,57.2,88,30.17,0.5,North,4.6,-,N/A,Fog,Fog,10,2013-11-17 13:49:00
8:53 AM,60.1,57.0,90,30.17,0.8,North,3.5,-,N/A,,Mist,360,2013-11-17 13:53:00
9:02 AM,60.8,57.2,88,30.17,1.2,Calm,Calm,-,N/A,,Overcast,0,2013-11-17 14:02:00
9:28 AM,60.8,57.2,88,30.17,2.0,North,3.5,-,N/A,,Overcast,10,2013-11-17 14:28:00
9:53 AM,61.0,57.9,90,30.17,1.8,North,3.5,-,N/A,,Overcast,360,2013-11-17 14:53:00
9:58 AM,62.6,59.0,88,30.18,3.0,NNE,3.5,-,N/A,,Overcast,20,2013-11-17 14:58:00
10:44 AM,66.2,59.0,78,30.16,10.0,Calm,Calm,-,N/A,,Overcast,0,2013-11-17 15:44:00
10:53 AM,68.0,60.1,76,30.16,10.0,Calm,Calm,-,N/A,,Mostly Cloudy,0,2013-11-17 15:53:00
11:53 AM,73.0,60.1,64,30.13,10.0,NE,3.5,-,N/A,,Mostly Cloudy,40,2013-11-17 16:53:00
12:53 PM,75.9,62.1,62,30.10,10.0,Calm,Calm,-,N/A,,Clear,0,2013-11-17 17:53:00
1:53 PM,77.0,62.1,60,30.06,10.0,ESE,6.9,-,N/A,,Partly Cloudy,120,2013-11-17 18:53:00
2:53 PM,75.0,61.0,62,30.04,10.0,ESE,6.9,-,N/A,,Overcast,120,2013-11-17 19:53:00
3:53 PM,73.0,61.0,66,30.04,10.0,ESE,9.2,-,N/A,,Overcast,110,2013-11-17 20:53:00
4:29 PM,71.6,62.6,73,30.05,10.0,SE,6.9,-,N/A,,Overcast,130,2013-11-17 21:29:00
4:53 PM,70.0,63.0,78,30.06,10.0,SE,3.5,-,N/A,,Overcast,140,2013-11-17 21:53:00
5:51 PM,68.0,64.4,88,30.05,2.5,SSE,4.6,-,0.00,Rain,Light Rain,160,2013-11-17 22:51:00
5:53 PM,68.0,64.0,87,30.06,2.5,SSE,4.6,-,0.00,Rain,Light Rain,150,2013-11-17 22:53:00
6:04 PM,68.0,64.4,88,30.06,5.0,SSE,4.6,-,0.00,Rain,Light Rain,160,2013-11-17 23:04:00
6:14 PM,68.0,64.4,88,30.05,4.0,SSE,3.5,-,0.01,,Overcast,160,2013-11-17 23:14:00
6:18 PM,68.0,64.4,88,30.05,4.0,SSE,4.6,-,0.01,Rain,Light Rain,160,2013-11-17 23:18:00
6:37 PM,68.0,64.4,88,30.05,4.0,SSE,5.8,-,0.01,Rain,Light Rain,150,2013-11-17 23:37:00
6:53 PM,68.0,64.9,90,30.05,3.0,SSE,6.9,-,0.03,Rain,Light Rain,150,2013-11-17 23:53:00
7:01 PM,68.0,64.4,88,30.04,6.0,SSE,8.1,-,0.00,Rain,Light Rain,160,2013-11-18 00:01:00
7:11 PM,68.0,64.4,88,30.04,9.0,SSE,4.6,-,0.00,,Overcast,160,2013-11-18 00:11:00
7:22 PM,69.8,64.4,83,30.05,9.0,SSE,8.1,-,0.00,,Overcast,160,2013-11-18 00:22:00
7:53 PM,69.1,64.9,87,30.01,4.0,SSE,11.5,-,0.00,,Overcast,150,2013-11-18 00:53:00
8:53 PM,69.1,64.9,87,30.00,5.0,South,9.2,-,0.01,,Overcast,180,2013-11-18 01:53:00
9:53 PM,69.1,64.9,87,30.00,10.0,South,10.4,-,N/A,,Overcast,180,2013-11-18 02:53:00
10:53 PM,69.1,66.0,90,29.99,10.0,SSW,8.1,-,N/A,,Overcast,200,2013-11-18 03:53:00
11:15 PM,69.8,66.2,88,30.00,10.0,SSW,8.1,-,N/A,,Overcast,210,2013-11-18 04:15:00
11:53 PM,70.0,66.0,87,29.99,10.0,SW,9.2,-,0.00,Rain,Light Rain,220,2013-11-18 04:53:00